Погода в Самином

Россия / Архангельская область     61°12′56″N   48°21′24″E
темп.,
°C
ветер,
м/с
пор.,
м/с
влажн.,
%
обл.,
%
осадки,
мм/ч
давл.,
гПа
погр.,
м
16 сентября, чт
чт1600:00+4с4898100 0.6 10061020
03:00+4с41098100 0.9 1007853
06:00+4ссз41095100 0.1 1008871
09:00+5ссз51091100 0.1 1009905
12:00+7с4984100 0.2 1010987
15:00+6ссз5986100 0.6 1011838
18:00+5ссз41088100 0.1 1012704
21:00+4ссз4887100 0.1 1013724
17 сентября, пт
пт1700:00+4ссз388674 0.1 1013580
03:00+2сз389753 0.1 1014272
06:00+3сз3895100 0.0 1013575
09:00+3сз3697100 0.3 1014600
12:00+4сз2697100 0.3 1015407
15:00+6ссв4786100 0.8 1016856
18:00+4с3884100 0.1 1018529
21:00+3с4985100 0.1 1019705
18 сентября, сб
сб1800:00+3ссз3785100 0.0 1019307
03:00+3ссз3988100 0.1 1020450
06:00+3ссз51085100 0.1 1021830
09:00+2с4878100 0.1 10221089
12:00+4ссз5869100 0.0 10221253
15:00+5ссз41066100 0.0 10221362
18:00+4ссз41070100 0.0 10221077
21:00+3сз41278100 0.0 1022703
19 сентября, вс
вс1900:00+2ссз41190100 0.0 1022623
03:00+1ссз4118787 0.0 1023581
06:000ссз4118999 0.0 1024610
09:00+3ссз4873100 0.0 10241178
12:00+5ссз4764100 0.1 10251332
15:00+5ссз3765100 0.1 10251329
18:00+4с3771100 0.0 1026621
21:00+3с3875100 0.0 1027460
20 сентября, пн
пн2000:00+3ссв3666100 0.0 1028367
03:00+2с3773100 0.0 1029317
06:00+2с2572100 0.0 1031187
09:00+5св346071 0.0 10321112
12:00+6ссв335477 0.0 10321225
15:00+7ссв33526 0.0 10311158
18:00+2с22745 0.0 103212
21:00+1св11835 0.0 103310